Flag for South Africa Weather past 2 weeks in Vereeniging, South Africa

Now
23 °F

Cold.


Feels Like: 16 °F
Forecast: 40 / 63 °F
Wind: 6 mph from Northwest

Location: Vereeniging

Current Time: Jul 28, 2014 at 7:01:42 AM

Latest Report: Jul 28, 2014 at 6:00 AM


Visibility: N/A

Pressure: 30.48 "Hg

Humidity: 80%

Dew point: 18 °F

Location of VereenigingLocation

Historic Weather in Vereeniging — Graph

°F

Vereeniging temperature yesterday

Maximum temperature yesterday: 59 °F (at 4:00 PM)
Minimum temperature yesterday: 21 °F (at 6:00 AM)
Average temperature yesterday: 39 °F

Past Weeks' High & Low Weather Summary

 TemperatureHumidityPressure
High70 °F (Jul 24, 4:00 PM)93% (Jul 15, 7:00 AM)30.57 "Hg (Jul 15, 7:00 AM)
Low21 °F (Jul 20, 7:00 AM)11% (Jul 20, 2:00 PM)30.09 "Hg (Jul 18, 3:00 PM)
Average45 °F42%30.36 "Hg
* Reported Jul 13 6:00 AM — Jul 28 6:00 AM, Vereeniging, Weather by CustomWeather, © 2014

Note: Actual official high and low records may vary slightly from our data, if they occured in-between our weather recording intervals... More about our weather records

Advertising

Vereeniging weather history for previous 24 hours

 ConditionsComfort  
Time TempWeatherWind HumidityBarometerVisibility
6:00 AM
Jul 28
23 °FCold.6 mph80%30.48 "HgN/A
5:00 AM25 °FCold.3 mph69%30.48 "HgN/A
4:00 AM25 °FCold.6 mph69%30.45 "HgN/A
3:00 AM27 °FChilly.6 mph64%30.45 "HgN/A
1:00 AM30 °FChilly.3 mph51%30.48 "HgN/A
12:00 AM30 °FChilly.5 mph55%30.48 "HgN/A
11:00 PM
Jul 27
32 °FChilly.3 mph47%30.48 "HgN/A
10:00 PM32 °FChilly.5 mph47%30.48 "HgN/A
9:00 PM36 °FChilly.5 mph41%30.45 "HgN/A
8:00 PM37 °FChilly.2 mph35%30.45 "HgN/A
7:00 PM45 °FQuite cool.3 mph27%30.42 "HgN/A
6:00 PM52 °FCool.3 mph19%30.42 "HgN/A
5:00 PM57 °FRefreshingly cool.3 mph14%30.42 "HgN/A
4:00 PM59 °FRefreshingly cool.3 mph13%30.39 "HgN/A
3:00 PM55 °FRefreshingly cool.5 mph15%30.39 "HgN/A
2:00 PM55 °FRefreshingly cool.5 mph16%30.42 "HgN/A
1:00 PM52 °FCool.5 mph17%30.42 "HgN/A
12:00 PM48 °FCool.3 mph21%30.45 "HgN/A
11:00 AM45 °FQuite cool.10 mph31%30.48 "HgN/A
10:00 AM41 °FQuite cool.8 mph39%30.48 "HgN/A
9:00 AM36 °FChilly.5 mph48%30.48 "HgN/A
8:00 AM32 °FChilly.6 mph60%30.45 "HgN/A
7:00 AM23 °FCold.5 mph68%30.42 "HgN/A
Weather by CustomWeather, © 2014

See weather overviewHow to use our weather pages